Location: Schommer Observatory
(40.5200°N, 74.4500°W)
Time: 09:46:19
(UTC-05:00)

N. Korean satellite - Pass Details

Date: 19 November 2017
Orbit: 460 x 514 km, 97.2° (Epoch: 23 November)

Event Time Altitude Azimuth Distance (km) Brightness Sun altitude
Rises 18:21:55 0° 183° (S) 2,481 10.3 -19.8°
Reaches altitude 10° 18:24:01 10° 191° (SSW) 1,617 9.4 -20.2°
Maximum altitude 18:27:17 39° 262° (W) 723 7.9 -20.8°
Drops below altitude 10° 18:30:38 10° 333° (NNW) 1,653 9.5 -21.4°
Sets 18:32:49 0° 341° (NNW) 2,547 10.4 -21.8°
